Change the Weather History Date:

Monday, December 24, 2012

  Actual Average Record
Temperature  
Mean Temperature 31 °F 27 °F  
Max Temperature 39 °F 41 °F 55 °F (2005)
Min Temperature 22 °F 14 °F 0 °F (1996)
Degree Days  
Heating Degree Days 34 38  
Month to date heating degree days 838 869  
Since 1 July heating degree days 2142 2394  
Cooling Degree Days 0 0  
Month to date cooling degree days 0 0  
Year to date cooling degree days 746 426  
Moisture  
Dew Point 24 °F    
Average Humidity 70    
Maximum Humidity 92    
Minimum Humidity 48    
Precipitation  
Precipitation 0.07 in 0.03 in 0.07 in (2012)
Month to date precipitation 0.89 0.65  
Year to date precipitation 7.47 13.38  
Sea Level Pressure  
Sea Level Pressure 29.79 in    
Wind  
Wind Speed 5 mph (WNW)    
Max Wind Speed 20 mph    
Max Gust Speed 30 mph    
Visibility 7 miles    
Events Fog , Snow    
T = Trace of Precipitation, MM = Missing Value Source: NWS Daily Summary

Daily Weather History Graph

Daily Weather History Graph

Search for Another Location

Airport or City:

Trip Planner

Search our weather history database for the weather conditions in past years. The results will help you decide how hot, cold, wet, or windy it might be!

Date:

Astronomy

Dec. 24, 2012 Rise Set
Actual Time 7:26 AM MST 5:02 PM MST
Civil Twilight 6:57 AM MST 5:31 PM MST
Nautical Twilight 6:24 AM MST 6:04 PM MST
Astronomical Twilight 5:52 AM MST 6:36 PM MST
Moon 2:30 PM MST (12/24) 4:09 AM MST (12/24)
Length of Visible Light 10h 34m
Length of Day
9h 35m
Waxing Gibbous, 89% of the Moon is Illuminated
Dec 24
Waxing Gibbous
Dec 28
Full
Jan 4
Last Quarter
Jan 11
New
Jan 18
First Quarter

Hourly Weather History & Observations

Time (MST) Temp. Windchill Dew Point Humidity Pressure Visibility Wind Dir Wind Speed Gust Speed Precip Events Conditions
12:53 AM 23.0 °F 14.7 °F 19.0 °F 85% 29.99 in 9.0 mi ENE 6.9 mph - N/A   Scattered Clouds
1:53 AM 24.1 °F 15.2 °F 19.0 °F 81% 29.99 in 10.0 mi NE 8.1 mph - N/A   Mostly Cloudy
2:53 AM 23.0 °F - 18.0 °F 81% 29.95 in 10.0 mi Calm Calm - N/A   Mostly Cloudy
3:53 AM 23.0 °F - 18.0 °F 81% 29.94 in 10.0 mi Calm Calm - N/A   Overcast
4:53 AM 25.0 °F 20.7 °F 19.0 °F 78% 29.93 in 10.0 mi NE 3.5 mph - N/A   Overcast
5:53 AM 26.1 °F 19.4 °F 19.9 °F 78% 29.92 in 10.0 mi NE 5.8 mph - N/A   Overcast
6:53 AM 26.1 °F 19.4 °F 21.0 °F 81% 29.94 in 10.0 mi ENE 5.8 mph - N/A   Overcast
7:53 AM 28.9 °F - 21.0 °F 72% 29.91 in 10.0 mi Calm Calm - N/A   Overcast
8:53 AM 32.0 °F 28.7 °F 23.0 °F 69% 29.89 in 10.0 mi East 3.5 mph - N/A   Overcast
9:53 AM 36.0 °F - 21.0 °F 55% 29.87 in 10.0 mi Calm Calm - N/A   Overcast
10:53 AM 37.9 °F - 19.9 °F 48% 29.85 in 10.0 mi Calm Calm - N/A   Overcast
11:53 AM 37.0 °F 34.5 °F 21.0 °F 52% 29.83 in 10.0 mi ESE 3.5 mph - N/A   Overcast
12:53 PM 35.1 °F 27.9 °F 25.0 °F 67% 29.79 in 8.0 mi South 9.2 mph - 0.00 in Snow Light Snow
1:53 PM 34.0 °F 28.0 °F 26.1 °F 73% 29.76 in 10.0 mi WSW 6.9 mph - 0.00 in   Overcast
2:37 PM 33.8 °F 28.6 °F 26.6 °F 75% 29.73 in 10.0 mi SW 5.8 mph - N/A   Overcast
2:53 PM 34.0 °F 31.0 °F 27.0 °F 75% 29.74 in 10.0 mi WSW 3.5 mph - N/A   Overcast
3:26 PM 33.8 °F 28.6 °F 28.4 °F 81% 29.71 in 9.0 mi NW 5.8 mph - 0.00 in   Overcast
3:53 PM 35.1 °F - 27.0 °F 72% 29.72 in 10.0 mi Calm Calm - 0.00 in   Overcast
4:31 PM 33.8 °F 30.8 °F 28.4 °F 81% 29.71 in 5.0 mi West 3.5 mph - 0.00 in Snow Light Snow
4:53 PM 33.1 °F 30.0 °F 28.0 °F 82% 29.72 in 9.0 mi WSW 3.5 mph - 0.00 in Snow Light Snow
5:09 PM 32.0 °F 28.7 °F 28.4 °F 87% 29.70 in 10.0 mi SW 3.5 mph - 0.00 in   Overcast
5:40 PM 32.0 °F 28.7 °F 28.4 °F 87% 29.70 in 10.0 mi SW 3.5 mph - 0.00 in   Overcast
5:53 PM 32.0 °F - 28.0 °F 85% 29.73 in 10.0 mi Calm Calm - 0.00 in   Overcast
6:34 PM 32.0 °F 26.4 °F 28.4 °F 87% 29.71 in 2.0 mi WNW 5.8 mph - 0.00 in Snow Light Snow
6:38 PM 32.0 °F 27.5 °F 28.4 °F 87% 29.71 in 1.8 mi West 4.6 mph - 0.00 in Snow Light Snow
6:53 PM 32.0 °F - 28.9 °F 88% 29.72 in 1.2 mi Calm Calm - 0.01 in Snow Light Snow
6:58 PM 30.2 °F 26.7 °F 28.4 °F 93% 29.72 in 0.8 mi West 3.5 mph - 0.01 in Snow Light Snow
7:06 PM 30.2 °F 26.7 °F 28.4 °F 93% 29.71 in 0.5 mi WNW 3.5 mph - 0.02 in Fog , Snow Snow
7:20 PM 30.2 °F 23.4 °F 28.4 °F 93% 29.72 in 1.2 mi WNW 6.9 mph - 0.03 in Snow Light Snow
7:25 PM 30.2 °F 22.6 °F 28.4 °F 93% 29.72 in 0.8 mi WNW 8.1 mph - 0.04 in Snow Light Snow
7:50 PM 30.2 °F 21.3 °F 28.4 °F 93% 29.73 in 1.0 mi WNW 10.4 mph - 0.06 in Snow Light Snow
7:53 PM 30.0 °F 20.5 °F 28.0 °F 92% 29.74 in 1.2 mi West 11.5 mph - 0.06 in Snow Light Snow
7:56 PM 30.2 °F 21.3 °F 28.4 °F 93% 29.73 in 2.0 mi West 10.4 mph - 0.00 in Snow Light Snow
7:58 PM 30.2 °F 20.8 °F 28.4 °F 93% 29.73 in 3.0 mi West 11.5 mph - 0.00 in Snow Light Snow
8:30 PM 30.2 °F 18.5 °F 24.8 °F 80% 29.75 in 7.0 mi NW 17.3 mph 25.3 mph 0.00 in Snow Light Snow
8:53 PM 30.0 °F 21.7 °F 21.0 °F 69% 29.76 in 10.0 mi NW 9.2 mph 24.2 mph 0.00 in   Overcast
9:53 PM 28.0 °F 19.3 °F 19.9 °F 72% 29.79 in 10.0 mi NNW 9.2 mph 20.7 mph N/A   Overcast
10:53 PM 27.0 °F 15.2 °F 17.1 °F 66% 29.80 in 10.0 mi NW 15.0 mph 25.3 mph N/A   Overcast
11:53 PM 26.1 °F 21.9 °F 17.1 °F 69% 29.83 in 10.0 mi North 3.5 mph 16.1 mph N/A   Overcast